User: anonymous
Location: Albany
(35.0000°S, 118.0000°E)
Time: 04:10:42
(UTC-04:00)
Language:

Cosmos 1758 Rocket - Orbit

View from above orbital plane
View from above orbital plane
View from above satellite
View from above satellite

Ground track
Ground track

The orbit data is extracted from the following two-line orbital elements,

1 16792U 86046B   14241.09594894  .00000287  00000-0  32533-4 0  5509
2 16792 082.4806 084.8248 0025612 063.4756 054.2788 14.82603445523254
Epoch (UTC): 29 August 2014 02:18:09
Eccentricity: 0.0025612
inclination: 82.4806°
perigee height: 603 km
apogee height: 639 km
right ascension of ascending node: 84.8248°
argument of perigee: 63.4756°
revolutions per day: 14.82603445
mean anomaly at epoch: 54.2788°
orbit number at epoch: 52325

The dashed part of the orbit path shows where the satellite is in the earth's shadow,  

DLR